Overview Statistics Trail Chart Weather Telemetry Raw packets
 

This is the latest recevied weather packets stored in our database for station/object KE8WMS. If no packets are shown the sender has not sent any weather packets the latest 10 day(s).

<< 26 27 28 29 30 31 32 >>
Time Temp. Humidity Pressure Rain* Wind** Luminosity Snow
1777653507 5.56° C 97% 1010 hPa 0 mm - 127 W/m² -
1777653204 5.56° C 98% 1010 hPa 0 mm - 113 W/m² -
1777652901 5.56° C 98% 1010 hPa 1.78 mm - 154 W/m² -
1777652597 5.56° C 98% 1009.9 hPa 1.78 mm - 234 W/m² -
1777652294 5.56° C 98% 1009.8 hPa 0 mm - 191 W/m² -
1777651991 5.56° C 98% 1010.1 hPa 0 mm - 90 W/m² -
1777651687 5.56° C 98% 1009.9 hPa 1.27 mm - 152 W/m² -
1777651384 5.56° C 98% 1010.1 hPa 1.27 mm - 184 W/m² -
1777651082 5° C 98% 1010.1 hPa 1.78 mm - 178 W/m² -
1777650778 5.56° C 98% 1010 hPa 1.78 mm - 129 W/m² -
1777650475 5.56° C 98% 1010.2 hPa 1.27 mm - 133 W/m² -
1777650172 5° C 98% 1010.2 hPa 3.05 mm - 77 W/m² -
1777649870 5° C 98% 1009.9 hPa 3.05 mm - 68 W/m² -
1777649567 5° C 98% 1010.1 hPa 1.27 mm - 64 W/m² -
1777649263 5° C 98% 1010.1 hPa 1.78 mm - 59 W/m² -
1777648960 5° C 98% 1010.1 hPa 1.78 mm - 71 W/m² -
1777648657 5° C 98% 1010.2 hPa 1.78 mm - 55 W/m² -
1777648353 5° C 98% 1010.1 hPa 3.05 mm - 66 W/m² -
1777648050 5.56° C 98% 1010 hPa 3.05 mm - 59 W/m² -
1777647746 5.56° C 98% 1010 hPa 3.05 mm - 79 W/m² -
1777647443 5.56° C 98% 1009.9 hPa 3.05 mm - 79 W/m² -
1777647140 5.56° C 98% 1009.8 hPa 1.78 mm - 74 W/m² -
1777646836 5.56° C 97% 1010 hPa 1.27 mm - 82 W/m² -
1777646532 5.56° C 97% 1010.1 hPa 1.27 mm - 63 W/m² -
1777646228 5.56° C 97% 1009.8 hPa 1.78 mm - 53 W/m² -

* Rain latest hour (hover to see other rain measurements)
** Current wind speed in m/s (hover to see current wind gust speed)